Hourly Data Report for October 15, 2015

All times are specified in Local Standard Time (LST). Add 1 hour to adjust for Daylight Saving Time where and when it is observed.

HALL BEACH A
NUNAVUT

68°46'33.000" N
81°14'33.000" W
9.10 m
2402354
71293
YUX

Download Data

Hourly Data (October 2015)
Hourly Data Report for October 15, 2015
Temp Definition
°C
Dew Point Temp Definition
°C
Rel Hum Definition
%
Wind Dir Definition
10's deg

Wind Spd Definition
km/h
Visibility Definition
km
Stn Press Definition
kPa
Hmdx Definition


Wind Chill Definition


Weather Definition


TIME
00:00 Legend Double Dagger -4.1 -4.9 94 32 54 1.6 99.33   -14 Snow
01:00 Legend Double Dagger -4.0 -5.0 93 32 50 3.2 99.33   -14 Snow
02:00 Legend Double Dagger -4.2 -5.2 93 32 46 3.6 99.33   -14 Fog
03:00 Legend Double Dagger -4.7 -5.8 92 32 43 4.8 99.36   -14 Fog
04:00 Legend Double Dagger -6.0 -7.2 91 31 43 16.1 99.40   -16 LegendNANA
05:00 Legend Double Dagger -6.1 -7.5 90 32 46 9.7 99.43   -16 Fog
06:00 Legend Double Dagger -6.6 -7.9 91 32 46 4.8 99.48   -17 Fog
07:00 Legend Double Dagger -6.7 -8.1 90 31 41 6.4 99.51   -16 Fog
08:00 Legend Double Dagger -6.4 -7.8 90 31 43 4.8 99.52   -16 Fog
09:00 Legend Double Dagger -6.2 -7.7 89 32 50 4.8 99.57   -17 Fog
10:00 Legend Double Dagger -6.1 -7.7 89 31 50 4.0 99.58   -16 Fog
11:00 Legend Double Dagger -5.4 -7.2 87 31 45 9.7 99.61   -15 Fog
12:00 Legend Double Dagger -5.5 -7.2 88 31 54 4.8 99.65   -16 Fog
13:00 Legend Double Dagger -4.9 -6.6 88 31 46 8.1 99.72   -14 Fog
14:00 Legend Double Dagger -4.5 -6.0 89 32 39 11.3 99.79   -13 LegendNANA
15:00 Legend Double Dagger -4.0 -5.3 91 31 37 14.5 99.83   -12 LegendNANA
16:00 Legend Double Dagger -4.1 -5.4 91 31 30 16.1 99.88   -12 LegendNANA
17:00 Legend Double Dagger -4.0 -5.5 90 31 37 16.1 99.92   -12 LegendNANA
18:00 Legend Double Dagger -4.0 -5.6 89 31 52 4.8 99.94   -14 Fog
19:00 Legend Double Dagger -4.6 -6.1 89 31 43 9.7 100.02   -14 Fog
20:00 Legend Double Dagger -4.7 -6.2 89 31 43 16.1 100.02   -14 LegendNANA
21:00 Legend Double Dagger -5.0 -6.7 88 30 35 16.1 100.06   -14 LegendNANA
22:00 Legend Double Dagger -5.1 -6.9 87 30 30 16.1 100.09   -13 LegendNANA
23:00 Legend Double Dagger -5.2 -6.6 90 28 24 16.1 100.14   -12 LegendNANA

Notes on Data Quality.

Legend

  • E = Estimated
  • M = Missing
  • NA = Not Available
  • ‡ = Partner data that is not subject to review by the National Climate Archives
Date modified: